Location: Prairie State College
(41.5244°N, 87.6382°W)
Time: 12:36:03
(UTC-05:00)

ARGOS Delta rocket - Pass Details

Date: 22 June 2018
Orbit: 636 x 837 km, 96.5° (Epoch: 21 September)

Event Time Altitude Azimuth Distance (km) Brightness Sun altitude
Rises 04:36:02 0° 132° (SE) 3,366 7.4 -7.0°
Reaches altitude 10° 04:38:50 10° 119° (ESE) 2,423 6.9 -6.6°
Maximum altitude 04:43:01 24° 68° (ENE) 1,645 6.8 -6.0°
Drops below altitude 10° 04:47:06 10° 17° (NNE) 2,363 7.5 -5.4°
Sets 04:49:47 0° 3° (N) 3,264 7.9 -5.0°
